Brainerd, MN

1:31 PM CST on February 27, 2017 (GMT -0600)
Brainerd-Crow Wing County Regional

Weather History for KBRD - February, 2014

Change the Weather History Date:

Friday, February 7, 2014

  Actual Average Record
Temperature  
Mean Temperature 4 °F -  
Max Temperature 12 °F 22 °F 48 °F (1987)
Min Temperature -11 °F -8 °F -42 °F (1982)
Degree Days  
Heating Degree Days 62    
Moisture  
Dew Point -11 °F    
Average Humidity 54    
Maximum Humidity 69    
Minimum Humidity 39    
Precipitation  
Precipitation 0.00 in - - ()
Sea Level Pressure  
Sea Level Pressure 30.13 in    
Wind  
Wind Speed 11 mph (SW)    
Max Wind Speed 16 mph    
Max Gust Speed -    
Visibility 10 miles    
Events      
Averages and records for this station are not official NWS values.
T = Trace of Precipitation, MM = Missing Value Source: NWS Daily Summary

Daily Weather History Graph

Daily Weather History Graph

Search for Another Location

Airport or City:

Trip Planner

Search our weather history database for the weather conditions in past years. The results will help you decide how hot, cold, wet, or windy it might be!

Date:

Astronomy

Feb. 07, 2014 Rise Set
Actual Time 7:31 AM CST 5:30 PM CST
Civil Twilight 7:00 AM CST 6:01 PM CST
Nautical Twilight 6:24 AM CST 6:37 PM CST
Astronomical Twilight 5:49 AM CST 7:12 PM CST
Moon 11:38 AM CST (2/7) 1:51 AM CST (2/7)
Length of Visible Light 11h 01m
Length of Day
9h 58m
First Quarter, 59% of the Moon is Illuminated
Feb 7
First Quarter
Feb 14
Full
Feb 22
Last Quarter
Mar 1
New
Mar 8
First Quarter

Hourly Weather History & Observations

Time (CST) Temp. Windchill Dew Point Humidity Pressure Visibility Wind Dir Wind Speed Gust Speed Precip Events Conditions
12:53 AM 1.0 °F -16.6 °F -8.0 °F 66% 30.15 in 10.0 mi SW 12.7 mph - N/A   Clear
1:53 AM -2.0 °F -17.7 °F -9.9 °F 69% 30.14 in 10.0 mi SW 9.2 mph - N/A   Clear
2:53 AM -0.0 °F -18.0 °F -9.9 °F 63% 30.13 in 10.0 mi WSW 12.7 mph - N/A   Clear
3:53 AM -0.9 °F -19.1 °F -11.0 °F 62% 30.12 in 10.0 mi WSW 12.7 mph - N/A   Clear
4:53 AM -2.0 °F -19.6 °F -11.9 °F 63% 30.11 in 10.0 mi SW 11.5 mph - N/A   Clear
5:53 AM -2.9 °F -17.7 °F -13.0 °F 62% 30.11 in 10.0 mi SW 8.1 mph - N/A   Clear
6:53 AM -4.0 °F -21.2 °F -14.1 °F 62% 30.11 in 10.0 mi SW 10.4 mph - N/A   Clear
7:53 AM -4.0 °F -23.7 °F -15.0 °F 59% 30.12 in 10.0 mi WSW 13.8 mph - N/A   Clear
8:53 AM -0.9 °F -19.9 °F -14.1 °F 54% 30.12 in 10.0 mi WSW 13.8 mph - N/A   Clear
9:53 AM 1.9 °F -14.7 °F -13.0 °F 50% 30.12 in 10.0 mi WSW 11.5 mph - N/A   Clear
10:53 AM 5.0 °F -11.6 °F -11.0 °F 48% 30.13 in 10.0 mi WSW 12.7 mph - N/A   Clear
11:53 AM 8.1 °F -9.0 °F -9.0 °F 46% 30.12 in 10.0 mi SW 15.0 mph - N/A   Clear
12:53 PM 10.9 °F -4.7 °F -9.0 °F 40% 30.11 in 10.0 mi SW 13.8 mph - N/A   Clear
1:53 PM 12.0 °F -2.7 °F -8.0 °F 41% 30.10 in 10.0 mi SW 12.7 mph - N/A   Clear
2:53 PM 12.9 °F -2.2 °F -8.0 °F 39% 30.11 in 10.0 mi SW 13.8 mph - N/A   Clear
3:53 PM 12.9 °F -3.4 °F -8.0 °F 39% 30.11 in 10.0 mi SW 16.1 mph - N/A   Clear
4:53 PM 12.0 °F -3.4 °F -9.0 °F 39% 30.13 in 10.0 mi WSW 13.8 mph - N/A   Clear
5:53 PM 7.0 °F -6.6 °F -9.9 °F 46% 30.14 in 10.0 mi SW 9.2 mph - N/A   Clear
6:53 PM 3.9 °F -5.3 °F -11.0 °F 50% 30.16 in 10.0 mi SSW 4.6 mph - N/A   Clear
7:53 PM 1.9 °F -5.6 °F -11.0 °F 55% 30.17 in 10.0 mi SW 3.5 mph - N/A   Clear
8:53 PM -0.0 °F -11.6 °F -11.9 °F 57% 30.17 in 10.0 mi SSW 5.8 mph - N/A   Clear
9:53 PM -0.0 °F - -11.0 °F 60% 30.17 in 10.0 mi Calm Calm - N/A   Clear
10:53 PM -5.1 °F -13.6 °F -14.1 °F 65% 30.17 in 8.0 mi South 3.5 mph - N/A   Clear
11:53 PM -11.9 °F - -20.0 °F 67% 30.17 in 9.0 mi Calm Calm - N/A   Clear